Lapse_Rate
5.8 5.6 5.5 5.4 5.5 5.5 5.7 5.8 5.9 5.9 5.9 5.9 6.1 6.1 6.1 6.1 6.1 6.1 6.1 6.0 5.8 5.9
5.9 5.7 5.7 5.8 5.8 5.9 6.0 6.0 6.1 6.0 6.2 6.0 6.1 6.2 6.3 6.2 6.1 6.1 5.9 5.8 5.9 5.8
6.0 6.0 6.0 6.0 6.0 6.1 6.2 6.3 6.3 6.4 6.2 6.3 6.2 6.3 6.4 6.4 6.3 6.3 6.0 5.8 5.6 5.5
5.7 6.0 6.2 6.5 6.4 6.6 6.5 6.4 6.4 6.3 6.2 6.2 6.4 6.4 6.4 6.4 6.4 6.2 5.8 6.0 6.0 6.3
6.1 6.1 6.6 7.0 7.1 6.9 6.8 6.8 6.6 6.4 6.4 6.2 6.3 6.4 6.6 6.6 6.4 6.3 6.2 5.2 6.1 6.4
7.0 7.2 7.2 7.2 7.3 7.2 7.2 7.0 6.9 6.6 6.7 6.6 6.6 6.5 6.5 6.4 6.4 6.4 6.0 6.1 6.4 6.3
6.8 6.6 7.0 7.3 7.5 7.5 7.3 7.2 7.0 6.9 6.8 6.8 6.6 6.5 6.4 6.3 6.3 6.4 6.4 6.2 5.9 5.8
6.7 6.9 6.9 6.7 7.3 7.6 7.2 7.3 7.2 7.1 6.9 6.8 6.5 6.4 6.4 6.4 6.0 6.3 6.1 5.9 5.9 5.9
7.1 7.2 7.1 7.3 7.5 7.6 7.3 7.2 7.3 7.2 7.0 6.8 6.3 6.2 6.1 6.2 6.1 6.2 6.3 5.9 5.5 5.3
7.1 7.1 7.1 7.1 7.6 7.6 7.3 7.4 6.7 6.6 6.1 5.9 5.9 5.8 5.8 6.1 6.0 5.9 5.8 5.9 5.4 4.9
5.8 6.0 6.3 6.4 6.7 7.1 6.9 6.7 6.8 6.6 6.0 6.1 5.9 6.2 5.6 6.0 5.8 5.5 5.1 5.1 5.2 5.2
5.3 5.6 5.8 6.3 6.6 6.7 6.6 6.4 6.2 6.0 6.1 6.0 5.8 5.6 5.6 5.2 4.9 5.1 5.3 5.4 5.5 5.3
5.1 5.2 5.4 5.6 5.7 5.7 5.7 5.8 5.9 5.5 5.4 5.6 4.8 5.3 5.4 5.2 5.1 5.3 5.4 5.5 5.8 5.6
4.9 4.9 4.8 4.8 5.0 5.1 5.1 5.0 5.1 5.0 4.9 5.0 5.2 5.2 5.4 5.5 5.7 5.8 5.7 5.8 5.7 5.5
Wind_Speed
8 7 9 10 9 8 8 9 11 13 14 16 15 14 12 9 9 10 8 8 6 3
7 8 9 11 9 8 9 7 10 12 12 11 12 13 13 9 10 9 8 7 7 4
7 7 8 7 9 9 7 7 8 10 12 11 11 11 12 9 10 9 6 6 8 6
7 7 6 5 5 5 5 7 9 10 10 12 13 12 10 9 10 10 8 9 10 7
5 5 5 4 3 3 4 5 7 9 9 9 11 11 12 12 11 12 11 9 11 10
5 5 4 2 1 2 5 6 6 8 9 8 8 10 10 12 13 12 12 10 10 8
7 4 4 5 5 4 7 9 9 9 10 11 11 11 13 14 14 12 10 10 9 8
9 9 9 8 9 7 9 9 10 11 11 10 11 8 13 14 13 13 11 8 8 6
10 9 8 8 9 9 9 9 10 10 11 11 9 22 22 16 11 10 9 8 6 5
8 8 8 7 8 8 8 10 12 12 13 12 11 22 21 19 9 8 7 6 5 5
8 9 8 9 8 8 8 9 10 11 12 11 10 19 20 18 9 7 7 6 6 5
8 9 8 9 8 8 9 10 9 9 10 10 10 18 16 11 6 6 6 6 5 3
8 8 8 8 7 7 7 9 8 10 8 11 9 11 11 8 5 6 4 4 2 3
8 8 7 7 7 6 8 8 9 9 7 5 4 7 11 9 4 3 3 2 0 1
Wind_Direction
263 248 239 231 226 224 218 219 221 217 208 204 195 191 193 195 192 185 185 163 170 173
295 272 256 251 236 235 229 217 200 196 204 208 197 194 186 188 183 171 159 153 145 132
303 285 270 262 250 236 226 203 189 190 187 179 178 177 182 175 172 159 138 135 130 117
345 334 321 300 285 248 206 189 179 180 179 178 173 164 160 155 147 130 129 121 121 89
347 335 331 317 288 206 180 181 174 161 162 170 171 156 147 145 139 129 123 124 103 107
356 332 327 350 61 160 138 139 149 140 138 135 133 130 124 121 115 112 112 108 106 111
3 8 43 68 82 95 114 111 110 106 108 112 113 116 116 112 109 103 96 99 101 105
39 37 56 67 73 79 79 92 99 102 99 104 109 115 111 105 105 105 105 102 109 109
43 53 58 59 73 77 84 96 94 90 96 97 100 110 110 112 116 111 120 116 106 104
49 59 59 64 77 89 94 97 95 93 96 87 105 111 109 108 100 101 105 108 124 133
52 57 62 70 72 76 84 85 90 89 90 104 103 105 103 100 95 102 116 132 127 144
55 66 70 69 67 72 78 77 77 80 84 88 92 96 98 100 105 110 120 125 141 160
64 65 62 66 64 68 77 78 82 77 69 84 91 102 114 127 118 123 124 123 113 3
64 70 65 72 66 74 79 83 75 78 77 83 135 164 137 115 102 119 131 104 99 321